THOR ABLESTAR DEB, 559

Orbit data source: Space-Track

THOR ABLESTAR DEB, 559 is space debris in LEO originally from a launch on Thu, 29 Jun 1961 UTC launched from the Air Force Eastern Test Range (AFETR). Debris objects in space refer to the collection of defunct objects orbiting the Earth. Examples of debris include non-operational satellites, rocket bodies, and fragments generated from explosions, collisions, or faulty payload assembly.

Loading next visibility...
Identifier
559, 1961-015GR
Orbit
LEO
Country
Flag of USUS
Related business
Manufacturer
Unknown
Mission
Spacecraft
Bus & Motor
Unknown
Mass
Unknown
Launch date (UTC)
1961-06-29 (65 years ago)
Launch vehicle
Unknown
Launch site
Air Force Eastern Test Range (AFETR)
Object type
Payload
Rocket body
Debris
Shape & HBR
Unknown shape, 0.1 m
Radar Cross Section
Medium (>0.1 m² and <1 m²)

Expand to show TLE details & history
Last TLE update: 9 hours ago

TLE from 9 hours ago
0 THOR ABLESTAR DEB
1 00559U 61015GR  26254.49182354  .00005545  00000-0  84061-3 0  9998
2 00559  66.5972  48.1873 0032876  96.0864 264.4003 14.74525077362491
Epoch: 2026-09-11T11:48Z
TLE epoch observation values (Epoch: 2026-09-11T11:48:13.553Z)
Latitude
-0.0001°
Longitude
-119.38362°
Altitude
651.131 km
Speed
7.531 km/s
True Right ascension
03h 12m 44s
True Declination
0° 00' 00"
Sunlit
Object was in full shadow at epoch
Visualization orbit readout
Latitude
Unknown
Longitude
Unknown
Altitude
Unknown
Speed
Unknown
Apparent Right ascension
Unknown
Apparent Declination
Unknown
Sunlit
N/A
Visualization observer readout
Local Sidereal Time
12:58:59
Azimuth
Unknown
Elevation
Unknown
Doppler factor
Unknown
Orbital elements
Apogee altitude
668.102 km
Perigee altitude
621.923 km
Semi-major axis
7,023.15 km
Eccentricity
0.00329
Inclination
66.5972°
RAAN
48.1873°
Arg. of periapsis
96.0864°
True anomaly
264.02552°
Mean anomaly
264.4003°
Eccentric anomaly
264.21289°
Mean motion
3.68761 °/min
Orbital period
97.62 mins
BSTAR
0.00084061
Loading maneuver chart data...
Computing Atmospheric mass density...

Documentation

Showing up to 5 results
|